Weather History for KSPG - July, 2013

Change the Weather History Date:

Thursday, July 18, 2013

  Actual Average Record
Temperature  
Mean Temperature 81 °F -  
Max Temperature 87 °F 91 °F 95 °F (1971)
Min Temperature 75 °F 76 °F 70 °F (1980)
Cooling Degree Days 16    
Growing Degree Days 31 (Base 50)    
Moisture  
Dew Point 74 °F    
Average Humidity 88    
Maximum Humidity 97    
Minimum Humidity 67    
Precipitation  
Precipitation 0.94 in - - ()
Sea Level Pressure  
Sea Level Pressure 30.07 in    
Wind  
Wind Speed 11 mph (SE)    
Max Wind Speed 25 mph    
Max Gust Speed -    
Visibility 7 miles    
Events Fog , Rain , Thunderstorm    
Averages and records for this station are not official NWS values.
T = Trace of Precipitation, MM = Missing Value Source: NWS Daily Summary

Daily Weather History Graph

Daily Weather History Graph

Search for Another Location

Airport or City:

Trip Planner

Search our weather history database for the weather conditions in past years. The results will help you decide how hot, cold, wet, or windy it might be!

Date:

Astronomy

Jul. 18, 2013 Rise Set
Actual Time 6:46 AM EDT 8:27 PM EDT
Civil Twilight 6:20 AM EDT 8:53 PM EDT
Nautical Twilight 5:48 AM EDT 9:24 PM EDT
Astronomical Twilight 5:16 AM EDT 9:56 PM EDT
Moon 4:25 PM EDT (7/18) 2:30 AM EDT (7/18)
Length of Visible Light 14h 32m
Length of Day
13h 41m
Waxing Gibbous, 77% of the Moon is Illuminated
Jul 18
Waxing Gibbous
Jul 22
Full
Jul 29
Last Quarter
Aug 6
New
Aug 14
First Quarter

Hourly Weather History & Observations

Time (EDT) Temp. Heat Index Dew Point Humidity Pressure Visibility Wind Dir Wind Speed Gust Speed Precip Events Conditions
12:53 AM 78.1 °F - 73.0 °F 84% 30.10 in 10.0 mi ESE 11.5 mph - N/A   Clear
1:53 AM 77.0 °F - 73.0 °F 88% 30.09 in 10.0 mi SE 12.7 mph - N/A   Clear
2:53 AM 77.0 °F - 73.9 °F 90% 30.08 in 10.0 mi SE 11.5 mph - N/A   Partly Cloudy
3:53 AM 77.0 °F - 73.9 °F 90% 30.08 in 10.0 mi ESE 12.7 mph - N/A   Clear
4:53 AM 77.0 °F - 73.9 °F 90% 30.07 in 10.0 mi East 10.4 mph - N/A   Clear
5:53 AM 77.0 °F - 75.0 °F 94% 30.07 in 10.0 mi ESE 9.2 mph - N/A   Partly Cloudy
6:53 AM 77.0 °F - 73.9 °F 90% 30.08 in 10.0 mi East 11.5 mph - N/A   Partly Cloudy
7:53 AM 78.1 °F - 75.0 °F 90% 30.09 in 10.0 mi East 12.7 mph - N/A   Partly Cloudy
8:53 AM 79.0 °F - 75.0 °F 88% 30.10 in 10.0 mi ESE 12.7 mph - N/A   Clear
9:53 AM 80.1 °F 85.1 °F 75.0 °F 85% 30.11 in 10.0 mi ESE 10.4 mph - N/A   Clear
10:53 AM 81.0 °F 86.7 °F 75.0 °F 82% 30.11 in 10.0 mi SE 9.2 mph - N/A   Clear
11:53 AM 84.0 °F 91.9 °F 75.0 °F 74% 30.11 in 10.0 mi SE 9.2 mph - N/A   Clear
12:53 PM 84.0 °F 90.2 °F 73.0 °F 69% 30.10 in 10.0 mi SSE 10.4 mph - N/A   Clear
1:53 PM 84.0 °F 90.2 °F 73.0 °F 69% 30.09 in 10.0 mi SE 5.8 mph - N/A   Clear
2:53 PM 87.1 °F 96.3 °F 75.0 °F 67% 30.07 in 10.0 mi ENE 3.5 mph - N/A   Clear
3:53 PM 84.9 °F 91.4 °F 73.0 °F 67% 30.04 in 10.0 mi Calm Calm - 0.00 in Rain , Thunderstorm Light Rain
4:19 PM 79.0 °F - 75.0 °F 88% 30.04 in 2.5 mi SSE 25.3 mph - 0.03 in Rain , Thunderstorm Light Rain
4:21 PM 78.1 °F - 75.0 °F 90% 30.04 in 1.0 mi SSE 24.2 mph - 0.12 in Rain , Thunderstorm Light Rain
4:28 PM 77.0 °F - 75.0 °F 94% 30.06 in 0.2 mi South 18.4 mph - 0.44 in Fog , Rain , Thunderstorm Heavy Rain
4:31 PM 77.0 °F - 75.0 °F 94% 30.06 in 0.5 mi South 18.4 mph - 0.55 in Fog , Rain , Thunderstorm Heavy Rain
4:39 PM 77.0 °F - 75.0 °F 94% 30.06 in 0.8 mi South 15.0 mph - 0.64 in Rain , Thunderstorm Heavy Rain
4:46 PM 75.9 °F - 73.0 °F 91% 30.06 in 1.5 mi SSE 9.2 mph - 0.69 in Rain , Thunderstorm Heavy Rain
4:53 PM 75.9 °F - 73.0 °F 91% 30.06 in 1.0 mi ESE 5.8 mph - 0.79 in Rain , Thunderstorm Heavy Rain
5:00 PM 75.9 °F - 73.0 °F 91% 30.06 in 1.5 mi West 3.5 mph - 0.03 in Rain , Thunderstorm Rain
5:06 PM 77.0 °F - 73.0 °F 88% 30.05 in 3.0 mi Calm Calm - 0.04 in Rain , Thunderstorm Rain
5:20 PM 75.9 °F - 73.0 °F 91% 30.05 in 4.0 mi WSW 3.5 mph - 0.06 in Rain Light Rain
5:53 PM 77.0 °F - 73.9 °F 90% 30.04 in 8.0 mi Calm Calm - 0.08 in Rain Light Rain
6:53 PM 77.0 °F - 75.0 °F 94% 30.05 in 10.0 mi South 12.7 mph - 0.02 in Rain Light Rain
7:11 PM 77.0 °F - 73.9 °F 90% 30.05 in 7.0 mi South 10.4 mph - 0.01 in Rain Light Rain
7:30 PM 75.9 °F - 75.0 °F 97% 30.05 in 7.0 mi SSW 8.1 mph - 0.02 in Rain Light Rain
7:53 PM 77.0 °F - 75.0 °F 94% 30.05 in 7.0 mi SSW 6.9 mph - 0.04 in Rain Light Rain
8:53 PM 78.1 °F - 73.9 °F 87% 30.06 in 10.0 mi SSE 8.1 mph - 0.01 in   Clear
9:53 PM 77.0 °F - 73.9 °F 90% 30.08 in 10.0 mi ESE 6.9 mph - N/A   Clear
10:28 PM 77.0 °F - 73.9 °F 90% 30.08 in 10.0 mi SE 9.2 mph - N/A   Mostly Cloudy
10:51 PM 75.2 °F - 73.4 °F 94% 30.08 in 10.0 mi SSE 8.1 mph - N/A   Scattered Clouds
10:52 PM 75.9 °F - 73.9 °F 94% 30.09 in 10.0 mi SSE 8.1 mph - N/A   Scattered Clouds
11:53 PM 75.9 °F - 75.0 °F 97% 30.09 in 10.0 mi SE 9.2 mph - N/A   Mostly Cloudy